Change the Weather History Date:

Thursday, February 2, 2012

  Actual Average Record
Temperature  
Mean Temperature 42 °F 30 °F  
Max Temperature 59 °F 43 °F 80 °F (2003)
Min Temperature 24 °F 18 °F -12 °F (1985)
Degree Days  
Heating Degree Days 24    
Moisture  
Dew Point 21 °F    
Average Humidity 53    
Maximum Humidity 85    
Minimum Humidity 25    
Precipitation  
Precipitation 0.08 in 0.02 in 0.08 in (2012)
Month to date precipitation 0.08 0.04  
Year to date precipitation 0.09 0.49  
Sea Level Pressure  
Sea Level Pressure 30.14 in    
Wind  
Wind Speed 5 mph (ENE)    
Max Wind Speed 14 mph    
Max Gust Speed 18 mph    
Visibility 10 miles    
Events Rain    
T = Trace of Precipitation, MM = Missing Value Source: NWS Daily Summary

Daily Weather History Graph

Daily Weather History Graph

Search for Another Location

Airport or City:

Trip Planner

Search our weather history database for the weather conditions in past years. The results will help you decide how hot, cold, wet, or windy it might be!

Date:

Astronomy

Feb. 02, 2012 Rise Set
Actual Time 7:46 AM CST 6:00 PM CST
Civil Twilight 7:17 AM CST 6:28 PM CST
Nautical Twilight 6:45 AM CST 7:00 PM CST
Astronomical Twilight 6:14 AM CST 7:32 PM CST
Moon 1:13 PM CST (2/2) 3:29 AM CST (2/2)
Length of Visible Light 11h 11m
Length of Day
10h 14m
Waxing Gibbous, 74% of the Moon is Illuminated
Feb 2
Waxing Gibbous
Feb 7
Full
Feb 14
Last Quarter
Feb 21
New
Feb 29
First Quarter

Hourly Weather History & Observations

Time (CST) Temp. Windchill Dew Point Humidity Pressure Visibility Wind Dir Wind Speed Gust Speed Precip Events Conditions
12:53 AM 26.1 °F 19.4 °F 12.0 °F 55% 30.17 in 10.0 mi West 5.8 mph - N/A   Clear
1:53 AM 26.1 °F 21.9 °F 12.0 °F 55% 30.17 in 10.0 mi WSW 3.5 mph - N/A   Clear
2:53 AM 26.1 °F - 12.9 °F 58% 30.18 in 10.0 mi Calm Calm - N/A   Clear
3:53 AM 26.1 °F - 12.9 °F 58% 30.17 in 10.0 mi Calm Calm - N/A   Clear
4:53 AM 26.1 °F 20.5 °F 14.0 °F 60% 30.19 in 10.0 mi NW 4.6 mph - N/A   Clear
5:53 AM 27.0 °F 23.0 °F 15.1 °F 61% 30.19 in 10.0 mi NNW 3.5 mph - N/A   Clear
6:53 AM 27.0 °F - 16.0 °F 63% 30.19 in 10.0 mi Calm Calm - N/A   Clear
7:53 AM 28.0 °F 24.2 °F 16.0 °F 61% 30.21 in 10.0 mi North 3.5 mph - N/A   Clear
8:53 AM 30.0 °F - 19.0 °F 64% 30.21 in 10.0 mi Calm Calm - N/A   Clear
9:53 AM 34.0 °F - 18.0 °F 52% 30.20 in 10.0 mi Calm Calm - N/A   Clear
10:53 AM 37.9 °F 32.1 °F 18.0 °F 45% 30.20 in 10.0 mi ESE 8.1 mph - N/A   Clear
11:53 AM 46.0 °F 41.9 °F 23.0 °F 40% 30.17 in 10.0 mi East 8.1 mph - N/A   Clear
12:53 PM 55.0 °F - 27.0 °F 34% 30.12 in 10.0 mi South 11.5 mph 18.4 mph N/A   Clear
1:53 PM 57.9 °F - 26.1 °F 30% 30.09 in 10.0 mi SSE 13.8 mph 19.6 mph N/A   Clear
2:53 PM 57.9 °F - 23.0 °F 26% 30.06 in 10.0 mi SSE 18.4 mph 27.6 mph N/A   Clear
3:53 PM 55.9 °F - 19.9 °F 25% 30.05 in 10.0 mi SE 13.8 mph - N/A   Clear
4:53 PM 54.0 °F - 19.0 °F 25% 30.04 in 10.0 mi ESE 11.5 mph - N/A   Clear
5:53 PM 51.1 °F - 18.0 °F 27% 30.06 in 10.0 mi ESE 8.1 mph - N/A   Mostly Cloudy
6:53 PM 50.0 °F - 19.9 °F 31% 30.09 in 10.0 mi East 6.9 mph - N/A   Overcast
7:53 PM 48.0 °F - 27.0 °F 44% 30.11 in 10.0 mi Variable 4.6 mph - 0.00 in Rain Light Rain
8:53 PM 45.0 °F 40.1 °F 35.1 °F 68% 30.10 in 10.0 mi ENE 9.2 mph - 0.00 in   Overcast
9:53 PM 44.1 °F 37.7 °F 35.1 °F 71% 30.07 in 10.0 mi East 12.7 mph - 0.00 in Rain Light Rain
10:53 PM 44.1 °F 39.0 °F 37.0 °F 76% 30.07 in 9.0 mi East 9.2 mph 19.6 mph 0.00 in Rain Light Rain
11:39 PM 42.8 °F 38.6 °F 37.4 °F 81% 30.06 in 10.0 mi NNE 6.9 mph - 0.08 in Rain Light Rain
11:53 PM 42.1 °F 36.6 °F 37.9 °F 85% 30.07 in 10.0 mi NNE 9.2 mph - 0.08 in   Overcast